TimeEDT,TemperatureF,Dew PointF,Humidity,Sea Level PressureIn,VisibilityMPH,Wind Direction,Wind SpeedMPH,Gust SpeedMPH,PrecipitationIn,Events,Conditions,WindDirDegrees,DateUTC
12:15 AM,64.4,53.6,68,30.28,10.0,East,4.6,-,N/A,,Clear,100,2013-06-21 04:15:00
12:35 AM,62.6,53.6,72,30.28,10.0,East,3.5,-,N/A,,Clear,100,2013-06-21 04:35:00
12:55 AM,62.6,53.6,72,30.28,10.0,East,3.5,-,N/A,,Clear,90,2013-06-21 04:55:00
1:15 AM,60.8,53.6,77,30.27,10.0,Calm,Calm,-,N/A,,Clear,0,2013-06-21 05:15:00
1:35 AM,59.0,53.6,82,30.27,10.0,Calm,Calm,-,N/A,,Clear,0,2013-06-21 05:35:00
1:55 AM,59.0,53.6,82,30.27,10.0,Calm,Calm,-,N/A,,Clear,0,2013-06-21 05:55:00
2:15 AM,57.2,53.6,88,30.27,10.0,Calm,Calm,-,N/A,,Clear,0,2013-06-21 06:15:00
2:35 AM,55.4,53.6,94,30.27,10.0,Calm,Calm,-,N/A,,Clear,0,2013-06-21 06:35:00
2:55 AM,55.4,53.6,94,30.27,10.0,Calm,Calm,-,N/A,,Clear,0,2013-06-21 06:55:00
3:15 AM,55.4,55.4,100,30.27,10.0,Calm,Calm,-,N/A,,Clear,0,2013-06-21 07:15:00
3:35 AM,55.4,55.4,100,30.27,10.0,Calm,Calm,-,N/A,,Clear,0,2013-06-21 07:35:00
3:55 AM,55.4,55.4,100,30.27,10.0,Calm,Calm,-,N/A,,Clear,0,2013-06-21 07:55:00
4:15 AM,55.4,55.4,100,30.27,10.0,Calm,Calm,-,N/A,,Clear,0,2013-06-21 08:15:00
4:35 AM,55.4,55.4,100,30.28,10.0,Calm,Calm,-,N/A,,Clear,0,2013-06-21 08:35:00
4:55 AM,55.4,55.4,100,30.28,10.0,Calm,Calm,-,N/A,,Clear,0,2013-06-21 08:55:00
5:15 AM,53.6,53.6,100,30.28,10.0,Calm,Calm,-,N/A,,Clear,0,2013-06-21 09:15:00
5:35 AM,53.6,53.6,100,30.28,10.0,Calm,Calm,-,N/A,,Clear,0,2013-06-21 09:35:00
5:55 AM,53.6,53.6,100,30.28,10.0,Calm,Calm,-,N/A,,Clear,0,2013-06-21 09:55:00
6:15 AM,53.6,53.6,100,30.29,10.0,Calm,Calm,-,N/A,,Clear,0,2013-06-21 10:15:00
6:35 AM,53.6,53.6,100,30.29,10.0,Calm,Calm,-,N/A,,Clear,0,2013-06-21 10:35:00
6:55 AM,55.4,55.4,100,30.30,10.0,Calm,Calm,-,N/A,,Clear,0,2013-06-21 10:55:00
7:15 AM,59.0,57.2,94,30.30,10.0,Calm,Calm,-,N/A,,Clear,0,2013-06-21 11:15:00
7:35 AM,59.0,57.2,94,30.30,10.0,Calm,Calm,-,N/A,,Clear,0,2013-06-21 11:35:00
7:55 AM,60.8,57.2,88,30.30,10.0,Calm,Calm,-,N/A,,Clear,0,2013-06-21 11:55:00
8:15 AM,62.6,57.2,82,30.30,10.0,NNE,3.5,-,N/A,,Clear,30,2013-06-21 12:15:00
8:35 AM,62.6,57.2,82,30.31,10.0,North,5.8,-,N/A,,Clear,10,2013-06-21 12:35:00
8:55 AM,64.4,55.4,73,30.31,10.0,North,5.8,-,N/A,,Clear,10,2013-06-21 12:55:00
9:15 AM,68.0,51.8,56,30.31,10.0,NE,4.6,-,N/A,,Clear,40,2013-06-21 13:15:00
9:35 AM,68.0,51.8,56,30.31,10.0,NE,4.6,-,N/A,,Clear,40,2013-06-21 13:35:00
9:55 AM,68.0,53.6,60,30.31,10.0,North,4.6,-,N/A,,Clear,10,2013-06-21 13:55:00
10:15 AM,69.8,51.8,53,30.31,10.0,NNE,6.9,-,N/A,,Clear,20,2013-06-21 14:15:00
10:35 AM,69.8,51.8,53,30.31,10.0,North,5.8,-,N/A,,Clear,10,2013-06-21 14:35:00
10:55 AM,71.6,51.8,50,30.31,10.0,NNE,5.8,-,N/A,,Clear,30,2013-06-21 14:55:00
11:15 AM,71.6,51.8,50,30.31,10.0,NE,5.8,-,N/A,,Clear,40,2013-06-21 15:15:00
11:35 AM,73.4,53.6,50,30.30,10.0,NNE,9.2,-,N/A,,Clear,20,2013-06-21 15:35:00
11:55 AM,75.2,55.4,50,30.30,10.0,North,-9999.0,-,N/A,,Clear,0,2013-06-21 15:55:00
12:15 PM,73.4,55.4,53,30.30,10.0,NE,4.6,-,N/A,,Clear,40,2013-06-21 16:15:00
12:35 PM,75.2,57.2,53,30.30,10.0,ENE,8.1,-,N/A,,Clear,60,2013-06-21 16:35:00
12:55 PM,77.0,59.0,54,30.30,10.0,NNE,8.1,-,N/A,,Clear,30,2013-06-21 16:55:00
1:15 PM,77.0,55.4,47,30.29,10.0,ENE,8.1,16.1,N/A,,Clear,70,2013-06-21 17:15:00
1:35 PM,77.0,53.6,44,30.29,10.0,East,10.4,-,N/A,,Clear,80,2013-06-21 17:35:00
1:55 PM,78.8,51.8,39,30.29,10.0,ENE,8.1,-,N/A,,Clear,60,2013-06-21 17:55:00
2:15 PM,78.8,53.6,42,30.29,10.0,ENE,6.9,-,N/A,,Clear,70,2013-06-21 18:15:00
2:35 PM,78.8,51.8,39,30.29,10.0,East,4.6,-,N/A,,Clear,100,2013-06-21 18:35:00
2:55 PM,78.8,51.8,39,30.28,10.0,ENE,8.1,-,N/A,,Clear,60,2013-06-21 18:55:00
3:15 PM,78.8,50.0,36,30.27,10.0,ENE,9.2,-,N/A,,Clear,60,2013-06-21 19:15:00
3:35 PM,80.6,48.2,32,30.27,10.0,ENE,5.8,-,N/A,,Clear,60,2013-06-21 19:35:00
3:55 PM,78.8,50.0,36,30.27,10.0,Calm,Calm,-,N/A,,Clear,0,2013-06-21 19:55:00
4:15 PM,80.6,51.8,37,30.27,10.0,NNE,6.9,-,N/A,,Clear,30,2013-06-21 20:15:00
4:35 PM,78.8,51.8,39,30.26,10.0,NNE,5.8,-,N/A,,Clear,30,2013-06-21 20:35:00
4:55 PM,80.6,53.6,39,30.25,10.0,NNE,4.6,-,N/A,,Clear,30,2013-06-21 20:55:00
5:15 PM,78.8,53.6,42,30.25,10.0,NNE,6.9,-,N/A,,Clear,30,2013-06-21 21:15:00
5:35 PM,78.8,53.6,42,30.25,10.0,ENE,5.8,-,N/A,,Clear,70,2013-06-21 21:35:00
5:55 PM,78.8,55.4,44,30.25,10.0,NNE,5.8,-,N/A,,Clear,30,2013-06-21 21:55:00
6:15 PM,78.8,55.4,44,30.25,10.0,NE,8.1,-,N/A,,Clear,50,2013-06-21 22:15:00
6:35 PM,78.8,55.4,44,30.24,10.0,ENE,5.8,-,N/A,,Clear,70,2013-06-21 22:35:00
6:55 PM,78.8,55.4,44,30.25,10.0,East,4.6,-,N/A,,Clear,80,2013-06-21 22:55:00
7:15 PM,77.0,59.0,54,30.25,10.0,ENE,4.6,-,N/A,,Clear,60,2013-06-21 23:15:00
7:35 PM,77.0,59.0,54,30.25,10.0,ENE,4.6,-,N/A,,Clear,60,2013-06-21 23:35:00
7:55 PM,73.4,60.8,65,30.25,10.0,Calm,Calm,-,N/A,,Clear,0,2013-06-21 23:55:00
8:15 PM,73.4,60.8,65,30.24,10.0,Calm,Calm,-,N/A,,Clear,0,2013-06-22 00:15:00
8:35 PM,69.8,60.8,73,30.24,10.0,North,3.5,-,N/A,,Clear,360,2013-06-22 00:35:00
8:55 PM,68.0,62.6,83,30.24,10.0,Calm,Calm,-,N/A,,Clear,0,2013-06-22 00:55:00
9:15 PM,64.4,62.6,94,30.24,10.0,Calm,Calm,-,N/A,,Clear,0,2013-06-22 01:15:00
9:35 PM,64.4,62.6,94,30.24,10.0,Calm,Calm,-,N/A,,Clear,0,2013-06-22 01:35:00
9:55 PM,64.4,62.6,94,30.24,10.0,Calm,Calm,-,N/A,,Clear,0,2013-06-22 01:55:00
10:15 PM,64.4,62.6,94,30.25,10.0,Calm,Calm,-,N/A,,Clear,0,2013-06-22 02:15:00
10:35 PM,62.6,62.6,100,30.25,10.0,Calm,Calm,-,N/A,,Clear,0,2013-06-22 02:35:00
10:55 PM,62.6,62.6,100,30.25,10.0,Calm,Calm,-,N/A,,Clear,0,2013-06-22 02:55:00
11:15 PM,62.6,62.6,100,30.25,10.0,Calm,Calm,-,N/A,,Clear,0,2013-06-22 03:15:00
11:35 PM,62.6,62.6,100,30.25,10.0,NE,4.6,-,N/A,,Clear,50,2013-06-22 03:35:00
11:55 PM,62.6,60.8,94,30.25,10.0,Calm,Calm,-,N/A,,Clear,0,2013-06-22 03:55:00